﻿測定場所 (Monitoring sites),日付 (Measurement date),時間 (Measurement time),線量率 最大値 (max) μGy/h,線量率 最小値 (min) μGy/h,線量率 平均値 (average) μGy/h,
小平 (Kodaira),2014-03-02,23:01～24:00,0.0425,0.0361,0.0383,
小平 (Kodaira),2014-03-02,22:01～23:00,0.0424,0.0331,0.0371,
小平 (Kodaira),2014-03-02,21:01～22:00,0.0372,0.0332,0.0354,
小平 (Kodaira),2014-03-02,20:01～21:00,0.0423,0.0352,0.0385,
小平 (Kodaira),2014-03-02,19:01～20:00,0.0441,0.0346,0.0389,
小平 (Kodaira),2014-03-02,18:01～19:00,0.0502,0.0414,0.0458,
小平 (Kodaira),2014-03-02,17:01～18:00,0.0519,0.0403,0.0457,
小平 (Kodaira),2014-03-02,16:01～17:00,0.0468,0.0368,0.0416,
小平 (Kodaira),2014-03-02,15:01～16:00,0.0409,0.0359,0.0378,
小平 (Kodaira),2014-03-02,14:01～15:00,0.0391,0.0329,0.0359,
小平 (Kodaira),2014-03-02,13:01～14:00,0.0369,0.0325,0.0349,
小平 (Kodaira),2014-03-02,12:01～13:00,0.0416,0.0338,0.0372,
小平 (Kodaira),2014-03-02,11:01～12:00,0.0426,0.0364,0.0395,
小平 (Kodaira),2014-03-02,10:01～11:00,0.0418,0.0326,0.0372,
小平 (Kodaira),2014-03-02,09:01～10:00,0.0392,0.0336,0.0357,
小平 (Kodaira),2014-03-02,08:01～09:00,0.0435,0.0343,0.0383,
小平 (Kodaira),2014-03-02,07:01～08:00,0.0504,0.0405,0.0451,
小平 (Kodaira),2014-03-02,06:01～07:00,0.0554,0.0435,0.0491,
小平 (Kodaira),2014-03-02,05:01～06:00,0.0609,0.0513,0.0566,
小平 (Kodaira),2014-03-02,04:01～05:00,0.0578,0.0486,0.0532,
小平 (Kodaira),2014-03-02,03:01～04:00,0.0556,0.0495,0.0527,
小平 (Kodaira),2014-03-02,02:01～03:00,0.0582,0.0486,0.0517,
小平 (Kodaira),2014-03-02,01:01～02:00,0.0554,0.0392,0.0472,
小平 (Kodaira),2014-03-02,00:01～01:00,0.0463,0.0369,0.0418,
小平 (Kodaira),2014-03-01,23:01～24:00,0.0423,0.0365,0.0395,
小平 (Kodaira),2014-03-01,22:01～23:00,0.0415,0.0357,0.0382,
小平 (Kodaira),2014-03-01,21:01～22:00,0.0385,0.0330,0.0352,
小平 (Kodaira),2014-03-01,20:01～21:00,0.0371,0.0332,0.0351,
小平 (Kodaira),2014-03-01,19:01～20:00,0.0428,0.0353,0.0376,
小平 (Kodaira),2014-03-01,18:01～19:00,0.0446,0.0345,0.0386,
小平 (Kodaira),2014-03-01,17:01～18:00,0.0363,0.0326,0.0345,
小平 (Kodaira),2014-03-01,16:01～17:00,0.0388,0.0333,0.0357,
小平 (Kodaira),2014-03-01,15:01～16:00,0.0410,0.0352,0.0373,
小平 (Kodaira),2014-03-01,14:01～15:00,0.0383,0.0327,0.0353,
小平 (Kodaira),2014-03-01,13:01～14:00,0.0395,0.0338,0.0361,
小平 (Kodaira),2014-03-01,12:01～13:00,0.0437,0.0353,0.0387,
小平 (Kodaira),2014-03-01,11:01～12:00,0.0424,0.0370,0.0396,
小平 (Kodaira),2014-03-01,10:01～11:00,0.0404,0.0356,0.0379,
小平 (Kodaira),2014-03-01,09:01～10:00,0.0414,0.0358,0.0380,
小平 (Kodaira),2014-03-01,08:01～09:00,0.0420,0.0365,0.0385,
小平 (Kodaira),2014-03-01,07:01～08:00,0.0440,0.0366,0.0404,
小平 (Kodaira),2014-03-01,06:01～07:00,0.0408,0.0350,0.0376,
小平 (Kodaira),2014-03-01,05:01～06:00,0.0374,0.0324,0.0349,
小平 (Kodaira),2014-03-01,04:01～05:00,0.0365,0.0327,0.0346,
小平 (Kodaira),2014-03-01,03:01～04:00,0.0367,0.0318,0.0342,
小平 (Kodaira),2014-03-01,02:01～03:00,0.0364,0.0322,0.0339,
小平 (Kodaira),2014-03-01,01:01～02:00,0.0359,0.0317,0.0340,
小平 (Kodaira),2014-03-01,00:01～01:00,0.0357,0.0319,0.0335,
小平 (Kodaira),2014-02-28,23:01～24:00,0.0355,0.0320,0.0335,
小平 (Kodaira),2014-02-28,22:01～23:00,0.0358,0.0316,0.0330,
小平 (Kodaira),2014-02-28,21:01～22:00,0.0353,0.0315,0.0331,
小平 (Kodaira),2014-02-28,20:01～21:00,0.0355,0.0316,0.0331,
小平 (Kodaira),2014-02-28,19:01～20:00,0.0347,0.0310,0.0331,
小平 (Kodaira),2014-02-28,18:01～19:00,0.0353,0.0305,0.0333,
小平 (Kodaira),2014-02-28,17:01～18:00,0.0348,0.0312,0.0331,
小平 (Kodaira),2014-02-28,16:01～17:00,0.0352,0.0310,0.0330,
小平 (Kodaira),2014-02-28,15:01～16:00,0.0362,0.0308,0.0331,
小平 (Kodaira),2014-02-28,14:01～15:00,0.0351,0.0302,0.0328,
小平 (Kodaira),2014-02-28,13:01～14:00,0.0352,0.0307,0.0330,
小平 (Kodaira),2014-02-28,12:01～13:00,0.0357,0.0314,0.0331,
小平 (Kodaira),2014-02-28,11:01～12:00,0.0352,0.0315,0.0334,
小平 (Kodaira),2014-02-28,10:01～11:00,0.0347,0.0320,0.0335,
小平 (Kodaira),2014-02-28,09:01～10:00,0.0353,0.0314,0.0334,
小平 (Kodaira),2014-02-28,08:01～09:00,0.0356,0.0317,0.0336,
小平 (Kodaira),2014-02-28,07:01～08:00,0.0368,0.0323,0.0345,
小平 (Kodaira),2014-02-28,06:01～07:00,0.0375,0.0330,0.0346,
小平 (Kodaira),2014-02-28,05:01～06:00,0.0366,0.0323,0.0348,
小平 (Kodaira),2014-02-28,04:01～05:00,0.0374,0.0318,0.0346,
小平 (Kodaira),2014-02-28,03:01～04:00,0.0394,0.0335,0.0362,
小平 (Kodaira),2014-02-28,02:01～03:00,0.0450,0.0362,0.0405,
小平 (Kodaira),2014-02-28,01:01～02:00,0.0459,0.0370,0.0405,
小平 (Kodaira),2014-02-28,00:01～01:00,0.0416,0.0357,0.0376,
小平 (Kodaira),2014-02-27,23:01～24:00,0.0394,0.0347,0.0367,
小平 (Kodaira),2014-02-27,22:01～23:00,0.0371,0.0330,0.0349,
小平 (Kodaira),2014-02-27,21:01～22:00,0.0381,0.0327,0.0347,
小平 (Kodaira),2014-02-27,20:01～21:00,0.0374,0.0335,0.0352,
小平 (Kodaira),2014-02-27,19:01～20:00,0.0381,0.0337,0.0359,
小平 (Kodaira),2014-02-27,18:01～19:00,0.0396,0.0339,0.0361,
小平 (Kodaira),2014-02-27,17:01～18:00,0.0365,0.0308,0.0342,
小平 (Kodaira),2014-02-27,16:01～17:00,0.0363,0.0310,0.0338,
小平 (Kodaira),2014-02-27,15:01～16:00,0.0366,0.0314,0.0336,
小平 (Kodaira),2014-02-27,14:01～15:00,0.0366,0.0323,0.0344,
小平 (Kodaira),2014-02-27,13:01～14:00,0.0373,0.0330,0.0346,
小平 (Kodaira),2014-02-27,12:01～13:00,0.0366,0.0317,0.0345,
小平 (Kodaira),2014-02-27,11:01～12:00,0.0386,0.0315,0.0352,
小平 (Kodaira),2014-02-27,10:01～11:00,0.0380,0.0327,0.0360,
小平 (Kodaira),2014-02-27,09:01～10:00,0.0389,0.0354,0.0368,
小平 (Kodaira),2014-02-27,08:01～09:00,0.0438,0.0363,0.0401,
小平 (Kodaira),2014-02-27,07:01～08:00,0.0432,0.0367,0.0398,
小平 (Kodaira),2014-02-27,06:01～07:00,0.0413,0.0342,0.0373,
小平 (Kodaira),2014-02-27,05:01～06:00,0.0376,0.0337,0.0354,
小平 (Kodaira),2014-02-27,04:01～05:00,0.0365,0.0331,0.0350,
小平 (Kodaira),2014-02-27,03:01～04:00,0.0372,0.0320,0.0340,
小平 (Kodaira),2014-02-27,02:01～03:00,0.0365,0.0323,0.0342,
小平 (Kodaira),2014-02-27,01:01～02:00,0.0364,0.0317,0.0339,
小平 (Kodaira),2014-02-27,00:01～01:00,0.0365,0.0318,0.0342,
小平 (Kodaira),2014-02-26,23:01～24:00,0.0368,0.0322,0.0344,
小平 (Kodaira),2014-02-26,22:01～23:00,0.0366,0.0323,0.0343,
小平 (Kodaira),2014-02-26,21:01～22:00,0.0358,0.0319,0.0337,
小平 (Kodaira),2014-02-26,20:01～21:00,0.0362,0.0313,0.0335,
小平 (Kodaira),2014-02-26,19:01～20:00,0.0350,0.0313,0.0330,
小平 (Kodaira),2014-02-26,18:01～19:00,0.0350,0.0307,0.0332,
小平 (Kodaira),2014-02-26,17:01～18:00,0.0356,0.0307,0.0329,
小平 (Kodaira),2014-02-26,16:01～17:00,0.0351,0.0311,0.0332,
小平 (Kodaira),2014-02-26,15:01～16:00,0.0357,0.0315,0.0332,
小平 (Kodaira),2014-02-26,14:01～15:00,0.0351,0.0321,0.0337,
小平 (Kodaira),2014-02-26,13:01～14:00,0.0355,0.0318,0.0336,
小平 (Kodaira),2014-02-26,12:01～13:00,0.0362,0.0320,0.0339,
小平 (Kodaira),2014-02-26,11:01～12:00,0.0355,0.0303,0.0331,
小平 (Kodaira),2014-02-26,10:01～11:00,0.0331,0.0298,0.0312,
小平 (Kodaira),2014-02-26,09:01～10:00,0.0345,0.0294,0.0320,
小平 (Kodaira),2014-02-26,08:01～09:00,0.0358,0.0326,0.0343,
小平 (Kodaira),2014-02-26,07:01～08:00,0.0369,0.0323,0.0349,
小平 (Kodaira),2014-02-26,06:01～07:00,0.0370,0.0327,0.0348,
小平 (Kodaira),2014-02-26,05:01～06:00,0.0369,0.0324,0.0349,
小平 (Kodaira),2014-02-26,04:01～05:00,0.0366,0.0325,0.0344,
小平 (Kodaira),2014-02-26,03:01～04:00,0.0364,0.0325,0.0345,
小平 (Kodaira),2014-02-26,02:01～03:00,0.0369,0.0331,0.0348,
小平 (Kodaira),2014-02-26,01:01～02:00,0.0365,0.0322,0.0344,
小平 (Kodaira),2014-02-26,00:01～01:00,0.0355,0.0321,0.0337,
小平 (Kodaira),2014-02-25,23:01～24:00,0.0355,0.0313,0.0336,
小平 (Kodaira),2014-02-25,22:01～23:00,0.0350,0.0318,0.0333,
小平 (Kodaira),2014-02-25,21:01～22:00,0.0365,0.0319,0.0335,
小平 (Kodaira),2014-02-25,20:01～21:00,0.0356,0.0311,0.0334,
小平 (Kodaira),2014-02-25,19:01～20:00,0.0357,0.0313,0.0333,
小平 (Kodaira),2014-02-25,18:01～19:00,0.0357,0.0305,0.0331,
小平 (Kodaira),2014-02-25,17:01～18:00,0.0358,0.0310,0.0333,
小平 (Kodaira),2014-02-25,16:01～17:00,0.0350,0.0309,0.0330,
小平 (Kodaira),2014-02-25,15:01～16:00,0.0353,0.0314,0.0335,
小平 (Kodaira),2014-02-25,14:01～15:00,0.0351,0.0317,0.0337,
小平 (Kodaira),2014-02-25,13:01～14:00,0.0366,0.0313,0.0335,
小平 (Kodaira),2014-02-25,12:01～13:00,0.0373,0.0317,0.0341,
小平 (Kodaira),2014-02-25,11:01～12:00,0.0365,0.0323,0.0343,
小平 (Kodaira),2014-02-25,10:01～11:00,0.0370,0.0329,0.0345,
小平 (Kodaira),2014-02-25,09:01～10:00,0.0371,0.0329,0.0352,
小平 (Kodaira),2014-02-25,08:01～09:00,0.0395,0.0337,0.0356,
小平 (Kodaira),2014-02-25,07:01～08:00,0.0385,0.0337,0.0357,
小平 (Kodaira),2014-02-25,06:01～07:00,0.0372,0.0326,0.0353,
小平 (Kodaira),2014-02-25,05:01～06:00,0.0372,0.0335,0.0353,
小平 (Kodaira),2014-02-25,04:01～05:00,0.0369,0.0327,0.0350,
小平 (Kodaira),2014-02-25,03:01～04:00,0.0372,0.0325,0.0349,
小平 (Kodaira),2014-02-25,02:01～03:00,0.0361,0.0312,0.0340,
小平 (Kodaira),2014-02-25,01:01～02:00,0.0356,0.0319,0.0338,
小平 (Kodaira),2014-02-25,00:01～01:00,0.0359,0.0313,0.0335,
小平 (Kodaira),2014-02-24,23:01～24:00,0.0351,0.0310,0.0334,
小平 (Kodaira),2014-02-24,22:01～23:00,0.0343,0.0315,0.0328,
小平 (Kodaira),2014-02-24,21:01～22:00,0.0348,0.0306,0.0327,
小平 (Kodaira),2014-02-24,20:01～21:00,0.0346,0.0305,0.0327,
小平 (Kodaira),2014-02-24,19:01～20:00,0.0345,0.0316,0.0329,
小平 (Kodaira),2014-02-24,18:01～19:00,0.0348,0.0307,0.0324,
小平 (Kodaira),2014-02-24,17:01～18:00,0.0343,0.0304,0.0324,
小平 (Kodaira),2014-02-24,16:01～17:00,0.0345,0.0311,0.0326,
小平 (Kodaira),2014-02-24,15:01～16:00,0.0349,0.0315,0.0331,
小平 (Kodaira),2014-02-24,14:01～15:00,0.0352,0.0319,0.0332,
小平 (Kodaira),2014-02-24,13:01～14:00,0.0353,0.0314,0.0333,
小平 (Kodaira),2014-02-24,12:01～13:00,0.0347,0.0316,0.0334,
小平 (Kodaira),2014-02-24,11:01～12:00,0.0352,0.0308,0.0332,
小平 (Kodaira),2014-02-24,10:01～11:00,0.0354,0.0315,0.0335,
小平 (Kodaira),2014-02-24,09:01～10:00,0.0352,0.0307,0.0335,
小平 (Kodaira),2014-02-24,08:01～09:00,0.0359,0.0310,0.0334,
小平 (Kodaira),2014-02-24,07:01～08:00,0.0348,0.0305,0.0330,
小平 (Kodaira),2014-02-24,06:01～07:00,0.0350,0.0314,0.0330,
小平 (Kodaira),2014-02-24,05:01～06:00,0.0347,0.0308,0.0331,
小平 (Kodaira),2014-02-24,04:01～05:00,0.0347,0.0306,0.0329,
小平 (Kodaira),2014-02-24,03:01～04:00,0.0354,0.0303,0.0330,
小平 (Kodaira),2014-02-24,02:01～03:00,0.0360,0.0306,0.0324,
小平 (Kodaira),2014-02-24,01:01～02:00,0.0349,0.0301,0.0329,
小平 (Kodaira),2014-02-24,00:01～01:00,0.0353,0.0305,0.0329,
